SCP
0 0 -0 -0 -0 -0 -0 -0 0 0 0 0 -0 -0 -0 -0 -0 -0 -0 -0 -0 -0 -0 -0 -0 -0 -0 -0 -0 0 0 0 -0 -0 0 -0 -0 -0 -0 -0 -0 -0 0
0 0 -0 -0 -0 -0 -0 -0 0 0 -0 -0 -0 -0 -0 -0 -0 -0 0 -0 -0 -0 -0 -0 -0 -0 -0 0 0 0 0 -0 0 -0 -0 -0 -0 -0 -0 -0 -0 -0 0
0 0 0 -0 -0 -0 -0 -0 0 0 0 0 0 -0 -0 -0 -0 -0 -0 -0 -0 -0 -0 -0 -0 -0 -0 0 0 0 -0 0 -0 -0 -0 -0 -0 -0 -0 -0 -0 -0 0
0 0 0 -0 -0 -0 -0 -0 -0 -0 0 0 0 0 -0 -0 -0 -0 -0 -0 -0 -0 -0 -0 -0 -0 -0 -0 0 -0 0 0 -0 -0 -0 -0 -0 -0 -0 -0 -0 -0 0
0 0 0 -0 -0 -0 -0 -0 -0 0 0 0 0 0 0 0 -0 -0 -0 -0 -0 -0 -0 -0 -0 -0 -0 -0 -0 0 0 0 -0 -0 -0 -0 -0 -0 -0 -0 -0 -0 -0
0 0 0 -0 -0 -0 -0 -0 -0 -0 -0 0 0 0 0 0 -0 -0 0 -0 -0 -0 -0 0 0 0 0 0 0 0 -0 -0 -0 -0 -0 -0 -0 0 0 0 0 -0 -0
0 0 0 -0 -0 -0 -0 -0 -0 -0 -0 -0 0 0 0 0 0 0 0 0 0 0 0 0 0 0 0 0 0 -0 -0 -0 -0 -0 -0 -0 -0 -0 -0 -0 -0 -0 0
0 0 0 0 0 -0 -0 -0 -0 -0 -0 0 0 0 0 0 0 0 0 0 0 0 0 0 0 0 0 0 -0 -0 -0 -0 -0 -0 -0 -0 -0 -0 0 0 0 0 -0
0 0 0 0 0 0 0 0 0 0 0 0 0 0 0 0 0 0 0 0 0 0 0 0 0 0 -0 -0 0 0 -0 -0 -0 -0 -0 0 -0 -0 -0 0 0 0 -0
0 0 0 0 0 0 0 0 0 0 0 0 0 0 0 0 0 0 0 0 0 0 0 0 -0 -0 -0 0 0 -0 -0 -0 -0 -0 0 0 -0 -0 -0 0 0 0 0
0 0 0 0 0 0 0 0 0 0 0 0 0 0 0 0 0 0 0 0 0 0 -0 -0 -0 -0 -0 -0 -0 -0 -0 -0 0 0 0 0 -0 -0 -0 0 0 0 0
0 0 0 0 0 0 0 0 0 0 0 0 0 0 0 0 0 0 0 0 -0 -0 -0 -0 -0 -0 -0 -0 -0 -0 0 0 0 0 0 0 0 0 0 0 0 0 0
0 0 0 0 0 0 0 0 0 0 0 0 0 0 0 0 0 0 0 0 0 -0 0 -0 -0 0 -0 0 0 0 0 0 0 0 0 0 0 0 0 0 0 0 0
0 0 0 0 0 0 0 0 0 0 0 0 0 0 0 0 0 0 0 0 0 0 0 0 0 0 0 0 0 0 0 0 0 0 0 0 0 0 0 0 0 0 0
0 0 0 0 0 0 0 0 0 0 0 0 0 0 0 0 0 0 0 0 0 0 0 0 0 0 0 0 0 0 0 0 0 0 0 0 0 0 0 0 0 0 0
0 0 0 0 0 0 0 0 0 0 0 0 0 0 0 0 0 0 0 0 0 0 0 0 0 0 0 0 0 0 0 0 0 0 0 0 0 0 0 0 0 0 0
0 0 0 0 0 0 0 0 0 0 0 0 0 0 0 0 0 0 0 0 0 0 0 0 0 0 0 0 0 0 0 0 0 0 0 0 0 0 0 0 0 0 0
0 0 0 0 0 0 0 0 0 0 0 0 0 0 0 0 0 0 0 0 0 0 0 0 0 0 0 0 0 0 0 0 0 0 0 0 0 0 0 0 0 0 0
0 0 0 0 0 0 0 0 0 0 0 0 0 0 0 0 0 0 0 0 0 0 0 0 0 0 0 0 0 0 0 0 0 0 0 0 0 0 0 0 0 0 0
0 0 0 0 0 0 0 0 0 0 0 0 0 0 0 0 0 0 0 0 0 0 0 0 0 0 0 0 0 0 0 0 0 0 0 0 0 0 0 0 0 0 0
0 0 0 0 0 0 0 0 0 0 0 0 0 0 0 0 0 0 0 0 0 0 0 0 0 0 0 0 0 0 0 0 0 0 0 0 0 0 0 0 0 0 0
0 0 0 0 0 0 0 0 0 0 0 0 0 0 0 0 0 0 0 0 0 0 0 0 0 0 0 0 0 0 0 0 0 0 0 0 0 0 0 0 0 0 0
0 0 0 0 0 0 0 0 0 0 0 0 0 0 0 0 0 0 0 0 0 0 0 0 0 0 0 0 0 0 0 0 0 0 0 0 0 0 0 0 0 0 0
0 0 0 0 0 0 0 0 0 0 0 0 0 0 0 0 0 0 0 0 0 0 0 0 0 0 0 0 0 0 0 0 0 0 0 0 0 0 0 0 0 0 0
0 0 0 0 0 0 0 0 0 0 0 0 0 0 0 0 0 0 0 0 0 0 0 0 0 0 0 0 0 0 0 0 0 0 0 0 0 0 0 0 0 0 0
0 0 0 0 0 0 0 0 0 0 0 0 0 0 0 0 0 0 0 0 0 0 0 0 0 0 0 0 0 0 0 0 0 0 0 0 0 0 0 0 0 0 0
Wind_Speed_500mb
40 36 43 38 33 30 33 32 33 32 33 41 37 33 32 26 24 20 14 8 3 4 7 11 15 24 29 28 29 32 30 32 31 31 31 32 32 32 36 39 34 31 28
42 41 45 38 34 32 35 35 36 34 34 38 35 32 33 28 22 15 9 6 5 11 18 21 22 28 26 26 27 30 31 30 30 30 29 31 30 31 33 32 29 30 33
42 44 46 40 33 33 35 36 36 35 35 33 31 29 22 18 13 8 2 1 5 21 21 23 23 23 28 29 29 28 29 29 28 28 27 27 29 29 29 28 31 29 30
45 47 47 43 36 32 36 33 32 33 29 27 27 25 21 15 12 8 5 7 16 21 21 21 20 21 24 27 26 24 24 26 26 26 24 24 25 26 26 26 26 27 27
45 45 46 44 36 32 37 30 30 28 25 24 24 24 23 18 14 10 12 21 23 14 19 18 16 17 19 21 23 22 22 24 24 22 22 22 22 23 23 22 22 22 22
44 46 46 43 36 35 36 28 24 20 16 15 17 20 22 21 11 16 21 24 20 16 17 15 14 13 14 15 16 17 18 19 20 18 18 19 19 20 19 19 18 18 17
46 47 44 41 37 37 35 27 21 17 11 11 12 18 20 26 18 18 17 15 13 16 15 14 12 10 8 9 10 12 14 15 14 14 14 14 14 14 14 13 13 13 13
44 47 44 41 40 38 34 27 22 14 11 8 7 13 16 19 19 16 15 14 12 13 13 12 9 7 4 3 6 7 9 10 10 10 10 11 11 11 12 13 12 11 10
43 46 44 43 41 38 34 27 22 14 8 2 4 10 12 15 17 18 14 13 12 11 9 9 6 3 1 2 4 5 8 8 8 9 9 9 10 10 10 10 11 12 12
45 46 46 45 43 42 37 29 23 17 11 4 3 7 11 13 13 15 12 12 10 8 6 6 4 4 5 6 8 10 10 13 12 12 13 13 13 13 14 14 14 15 15
50 49 48 48 45 41 37 32 26 19 12 7 6 8 13 13 11 11 12 11 9 8 7 5 6 6 8 10 11 11 12 13 12 14 16 16 16 16 16 16 16 17 18
57 54 51 49 46 43 40 35 30 24 17 12 7 8 12 11 10 11 10 10 9 8 7 4 5 8 9 11 12 13 14 15 16 18 19 19 19 19 19 20 20 20 20
58 54 53 49 46 44 41 37 32 26 21 16 13 14 12 11 12 11 10 9 7 6 5 6 7 10 12 13 14 16 18 20 22 24 23 23 23 23 23 24 25 24 23
58 57 55 50 47 43 39 37 32 28 24 21 15 16 15 13 11 10 10 11 10 10 9 11 13 16 16 17 18 21 23 24 25 23 22 23 24 24 25 26 26 26 26
56 56 54 53 51 45 42 38 35 32 27 21 19 18 18 18 16 15 13 14 12 14 13 14 15 16 17 20 22 24 23 24 25 24 25 25 26 27 28 28 29 29 30
51 52 51 51 49 47 43 39 37 33 29 27 25 21 19 19 19 20 19 17 18 18 18 18 18 19 20 23 23 25 26 27 29 30 31 31 31 31 31 32 33 34 35
49 47 47 45 47 48 45 40 38 35 33 32 27 26 25 23 23 23 21 21 18 20 21 21 21 23 26 27 30 30 33 33 34 35 34 33 33 33 35 37 38 39 39
47 50 47 45 45 46 45 40 39 37 33 33 30 28 28 27 27 26 24 23 19 20 23 24 24 26 29 32 34 36 40 42 42 41 39 38 38 39 41 42 44 46 46
50 50 48 47 47 45 43 39 36 35 34 32 29 28 27 27 25 27 26 21 22 24 28 28 30 32 32 33 39 43 48 48 47 47 45 42 40 40 42 44 46 47 49
53 53 51 48 46 46 45 42 39 38 37 34 34 32 29 30 28 29 29 28 29 32 32 33 37 37 39 40 44 48 48 47 47 44 44 41 40 41 42 44 42 40 40
55 57 60 57 53 49 50 50 48 45 40 40 37 35 35 37 35 35 35 33 34 38 39 38 42 46 48 43 52 55 55 53 33 44 26 28 32 34 40 40 37 36 34
55 61 63 65 61 54 51 46 46 41 40 39 39 39 39 37 36 38 40 38 36 40 41 42 42 47 51 51 51 55 49 64 48 29 50 41 33 43 39 36 38 37 37
60 58 68 68 67 60 54 47 46 44 47 46 45 42 37 37 36 34 35 37 36 41 46 44 45 45 52 56 53 49 34 29 63 67 58 61 51 43 43 49 45 42 42
64 56 61 68 66 57 57 56 52 47 50 47 45 48 47 47 47 42 39 40 40 42 47 48 48 50 52 58 62 62 63 66 65 61 65 71 72 71 62 57 52 47 49
61 61 56 60 68 62 57 57 53 50 50 48 46 46 45 48 47 44 45 47 49 46 48 46 50 54 54 58 60 64 67 69 72 72 74 66 81 83 78 74 63 61 58
52 63 60 55 58 64 65 61 59 55 50 49 45 43 40 35 36 40 45 50 50 49 50 51 49 48 51 55 57 59 63 66 68 71 74 72 74 80 84 81 83 73 70
Wind_Direction_500mb
171 170 157 165 162 150 145 137 137 135 136 134 132 134 136 137 135 135 126 115 108 99 83 111 100 89 85 80 77 78 80 77 77 82 77 78 76 70 81 77 64 76 92
160 166 159 166 164 155 154 148 146 138 139 146 149 136 140 135 133 125 107 85 39 101 108 105 95 87 84 81 81 79 77 75 71 67 70 76 75 70 71 76 69 69 83
165 164 160 165 163 160 159 158 156 153 152 154 156 161 160 156 149 144 159 346 102 112 103 97 91 87 81 79 82 80 78 75 72 68 66 69 72 70 72 72 72 73 85
165 163 161 165 164 166 158 159 165 166 166 167 170 173 181 185 183 168 151 115 107 103 99 97 94 80 77 75 74 76 75 73 70 67 65 65 66 67 67 68 68 71 76
166 164 162 165 167 169 165 162 162 167 178 187 195 200 203 206 212 188 152 103 104 101 111 103 98 86 71 62 65 69 70 68 65 64 62 61 61 62 60 61 63 65 67
166 165 163 165 168 167 168 166 163 164 173 188 200 201 197 190 197 161 139 133 133 104 110 104 97 88 73 59 52 57 60 59 59 58 58 57 55 55 54 52 53 54 58
166 166 166 168 169 167 168 164 161 151 148 161 180 184 182 177 162 143 149 141 111 103 113 112 104 93 77 59 48 44 44 47 46 45 46 49 48 48 44 43 43 41 40
169 167 168 169 171 171 172 169 163 159 136 122 159 182 166 159 153 149 152 152 143 134 131 124 119 113 104 52 15 14 29 28 27 24 23 24 27 27 20 16 13 12 12
173 171 172 171 174 176 178 181 175 174 167 138 128 183 184 170 160 162 158 145 149 148 144 143 143 152 180 309 319 325 338 345 353 358 354 351 352 357 355 352 348 342 340
178 178 178 177 179 182 185 189 188 190 196 223 225 190 188 178 177 176 163 149 143 156 174 181 192 232 259 285 300 316 325 324 327 330 331 327 325 326 331 332 332 330 325
184 186 185 183 185 187 191 195 200 206 217 233 206 203 195 189 192 185 180 184 184 194 202 223 240 263 285 290 293 303 311 315 318 319 322 316 311 308 309 311 312 312 313
190 190 192 191 191 194 198 202 207 212 222 228 211 192 193 200 203 199 200 194 189 206 221 246 271 282 286 292 295 295 301 309 313 311 311 308 304 302 301 302 305 303 303
192 196 195 195 197 202 205 208 212 216 219 220 209 201 198 199 209 214 220 226 233 235 245 259 276 283 287 292 291 291 299 302 303 302 303 300 296 294 296 296 297 298 297
197 200 199 199 202 204 208 215 218 220 219 218 219 218 220 224 227 229 234 238 242 248 263 281 285 287 292 297 296 295 298 301 303 305 304 300 299 296 293 292 293 295 294
204 204 205 204 205 207 210 216 221 223 222 220 225 232 236 236 243 249 245 249 252 263 272 279 283 283 290 289 292 296 299 301 302 301 302 300 298 295 293 292 291 290 290
213 207 207 210 212 214 216 219 225 227 228 229 229 231 237 243 244 250 250 252 254 262 266 268 275 280 283 287 291 294 297 297 297 298 300 297 293 290 290 289 288 287 286
222 215 214 217 219 219 222 225 227 231 234 235 237 243 248 248 251 252 247 248 258 262 268 272 277 286 292 295 299 299 297 295 293 295 294 292 291 288 288 290 290 287 285
220 221 217 222 223 222 226 229 232 234 235 239 241 245 250 253 255 254 254 254 259 266 272 278 282 285 292 297 301 302 298 296 296 294 291 292 290 290 286 286 286 287 287
225 222 222 225 227 226 226 227 232 233 235 239 244 245 247 250 253 257 261 263 266 266 272 279 284 289 293 298 301 304 302 298 295 292 293 293 290 290 288 287 288 288 288
228 227 226 229 233 233 233 229 231 232 238 243 250 252 251 253 255 260 263 268 273 276 277 283 288 290 293 299 303 303 309 308 306 304 299 291 289 289 290 292 294 296 293
230 228 228 228 228 230 232 234 234 237 241 244 250 257 258 259 261 264 267 271 277 279 284 285 288 291 293 299 301 306 304 306 314 311 312 317 309 304 297 298 297 298 300
233 230 228 229 232 230 233 236 242 249 253 257 257 258 258 261 265 268 273 275 279 282 283 285 289 295 297 300 298 305 312 306 311 299 308 302 300 302 300 299 301 301 302
230 231 229 228 230 232 234 235 238 246 251 254 255 262 267 270 273 279 282 283 282 281 283 284 286 287 293 296 295 290 289 286 299 304 299 298 299 295 294 297 297 298 298
226 228 230 230 232 232 234 236 237 241 250 265 272 276 277 279 281 286 288 288 290 290 288 288 288 290 289 287 292 291 289 288 285 295 296 294 295 294 293 291 287 289 290
219 222 226 226 230 230 230 236 240 244 251 260 267 269 274 277 276 278 283 284 281 283 285 290 292 288 288 290 292 296 295 295 291 280 283 288 297 302 299 294 290 289 286
220 218 219 220 223 229 234 233 235 240 247 254 263 269 277 281 279 278 280 283 281 283 287 290 290 289 291 294 292 292 290 291 292 288 281 284 287 294 298 300 302 292 289
Wind_Speed_850mb
40 36 43 38 33 30 33 32 33 32 33 41 37 33 32 26 24 20 14 8 3 4 7 11 15 24 29 28 29 32 30 32 31 31 31 32 32 32 36 39 34 31 28
42 41 45 38 34 32 35 35 36 34 34 38 35 32 33 28 22 15 9 6 5 11 18 21 22 28 26 26 27 30 31 30 30 30 29 31 30 31 33 32 29 30 33
42 44 46 40 33 33 35 36 36 35 35 33 31 29 22 18 13 8 2 1 5 21 21 23 23 23 28 29 29 28 29 29 28 28 27 27 29 29 29 28 31 29 30
45 47 47 43 36 32 36 33 32 33 29 27 27 25 21 15 12 8 5 7 16 21 21 21 20 21 24 27 26 24 24 26 26 26 24 24 25 26 26 26 26 27 27
45 45 46 44 36 32 37 30 30 28 25 24 24 24 23 18 14 10 12 21 23 14 19 18 16 17 19 21 23 22 22 24 24 22 22 22 22 23 23 22 22 22 22
44 46 46 43 36 35 36 28 24 20 16 15 17 20 22 21 11 16 21 24 20 16 17 15 14 13 14 15 16 17 18 19 20 18 18 19 19 20 19 19 18 18 17
46 47 44 41 37 37 35 27 21 17 11 11 12 18 20 26 18 18 17 15 13 16 15 14 12 10 8 9 10 12 14 15 14 14 14 14 14 14 14 13 13 13 13
44 47 44 41 40 38 34 27 22 14 11 8 7 13 16 19 19 16 15 14 12 13 13 12 9 7 4 3 6 7 9 10 10 10 10 11 11 11 12 13 12 11 10
43 46 44 43 41 38 34 27 22 14 8 2 4 10 12 15 17 18 14 13 12 11 9 9 6 3 1 2 4 5 8 8 8 9 9 9 10 10 10 10 11 12 12
45 46 46 45 43 42 37 29 23 17 11 4 3 7 11 13 13 15 12 12 10 8 6 6 4 4 5 6 8 10 10 13 12 12 13 13 13 13 14 14 14 15 15
50 49 48 48 45 41 37 32 26 19 12 7 6 8 13 13 11 11 12 11 9 8 7 5 6 6 8 10 11 11 12 13 12 14 16 16 16 16 16 16 16 17 18
57 54 51 49 46 43 40 35 30 24 17 12 7 8 12 11 10 11 10 10 9 8 7 4 5 8 9 11 12 13 14 15 16 18 19 19 19 19 19 20 20 20 20
58 54 53 49 46 44 41 37 32 26 21 16 13 14 12 11 12 11 10 9 7 6 5 6 7 10 12 13 14 16 18 20 22 24 23 23 23 23 23 24 25 24 23
58 57 55 50 47 43 39 37 32 28 24 21 15 16 15 13 11 10 10 11 10 10 9 11 13 16 16 17 18 21 23 24 25 23 22 23 24 24 25 26 26 26 26
56 56 54 53 51 45 42 38 35 32 27 21 19 18 18 18 16 15 13 14 12 14 13 14 15 16 17 20 22 24 23 24 25 24 25 25 26 27 28 28 29 29 30
51 52 51 51 49 47 43 39 37 33 29 27 25 21 19 19 19 20 19 17 18 18 18 18 18 19 20 23 23 25 26 27 29 30 31 31 31 31 31 32 33 34 35
49 47 47 45 47 48 45 40 38 35 33 32 27 26 25 23 23 23 21 21 18 20 21 21 21 23 26 27 30 30 33 33 34 35 34 33 33 33 35 37 38 39 39
47 50 47 45 45 46 45 40 39 37 33 33 30 28 28 27 27 26 24 23 19 20 23 24 24 26 29 32 34 36 40 42 42 41 39 38 38 39 41 42 44 46 46
50 50 48 47 47 45 43 39 36 35 34 32 29 28 27 27 25 27 26 21 22 24 28 28 30 32 32 33 39 43 48 48 47 47 45 42 40 40 42 44 46 47 49
53 53 51 48 46 46 45 42 39 38 37 34 34 32 29 30 28 29 29 28 29 32 32 33 37 37 39 40 44 48 48 47 47 44 44 41 40 41 42 44 42 40 40
55 57 60 57 53 49 50 50 48 45 40 40 37 35 35 37 35 35 35 33 34 38 39 38 42 46 48 43 52 55 55 53 33 44 26 28 32 34 40 40 37 36 34
55 61 63 65 61 54 51 46 46 41 40 39 39 39 39 37 36 38 40 38 36 40 41 42 42 47 51 51 51 55 49 64 48 29 50 41 33 43 39 36 38 37 37
60 58 68 68 67 60 54 47 46 44 47 46 45 42 37 37 36 34 35 37 36 41 46 44 45 45 52 56 53 49 34 29 63 67 58 61 51 43 43 49 45 42 42
64 56 61 68 66 57 57 56 52 47 50 47 45 48 47 47 47 42 39 40 40 42 47 48 48 50 52 58 62 62 63 66 65 61 65 71 72 71 62 57 52 47 49
61 61 56 60 68 62 57 57 53 50 50 48 46 46 45 48 47 44 45 47 49 46 48 46 50 54 54 58 60 64 67 69 72 72 74 66 81 83 78 74 63 61 58
52 63 60 55 58 64 65 61 59 55 50 49 45 43 40 35 36 40 45 50 50 49 50 51 49 48 51 55 57 59 63 66 68 71 74 72 74 80 84 81 83 73 70
Wind_Direction_850mb
171 170 157 165 162 150 145 137 137 135 136 134 132 134 136 137 135 135 126 115 108 99 83 111 100 89 85 80 77 78 80 77 77 82 77 78 76 70 81 77 64 76 92
160 166 159 166 164 155 154 148 146 138 139 146 149 136 140 135 133 125 107 85 39 101 108 105 95 87 84 81 81 79 77 75 71 67 70 76 75 70 71 76 69 69 83
165 164 160 165 163 160 159 158 156 153 152 154 156 161 160 156 149 144 159 346 102 112 103 97 91 87 81 79 82 80 78 75 72 68 66 69 72 70 72 72 72 73 85
165 163 161 165 164 166 158 159 165 166 166 167 170 173 181 185 183 168 151 115 107 103 99 97 94 80 77 75 74 76 75 73 70 67 65 65 66 67 67 68 68 71 76
166 164 162 165 167 169 165 162 162 167 178 187 195 200 203 206 212 188 152 103 104 101 111 103 98 86 71 62 65 69 70 68 65 64 62 61 61 62 60 61 63 65 67
166 165 163 165 168 167 168 166 163 164 173 188 200 201 197 190 197 161 139 133 133 104 110 104 97 88 73 59 52 57 60 59 59 58 58 57 55 55 54 52 53 54 58
166 166 166 168 169 167 168 164 161 151 148 161 180 184 182 177 162 143 149 141 111 103 113 112 104 93 77 59 48 44 44 47 46 45 46 49 48 48 44 43 43 41 40
169 167 168 169 171 171 172 169 163 159 136 122 159 182 166 159 153 149 152 152 143 134 131 124 119 113 104 52 15 14 29 28 27 24 23 24 27 27 20 16 13 12 12
173 171 172 171 174 176 178 181 175 174 167 138 128 183 184 170 160 162 158 145 149 148 144 143 143 152 180 309 319 325 338 345 353 358 354 351 352 357 355 352 348 342 340
178 178 178 177 179 182 185 189 188 190 196 223 225 190 188 178 177 176 163 149 143 156 174 181 192 232 259 285 300 316 325 324 327 330 331 327 325 326 331 332 332 330 325
184 186 185 183 185 187 191 195 200 206 217 233 206 203 195 189 192 185 180 184 184 194 202 223 240 263 285 290 293 303 311 315 318 319 322 316 311 308 309 311 312 312 313
190 190 192 191 191 194 198 202 207 212 222 228 211 192 193 200 203 199 200 194 189 206 221 246 271 282 286 292 295 295 301 309 313 311 311 308 304 302 301 302 305 303 303
192 196 195 195 197 202 205 208 212 216 219 220 209 201 198 199 209 214 220 226 233 235 245 259 276 283 287 292 291 291 299 302 303 302 303 300 296 294 296 296 297 298 297
197 200 199 199 202 204 208 215 218 220 219 218 219 218 220 224 227 229 234 238 242 248 263 281 285 287 292 297 296 295 298 301 303 305 304 300 299 296 293 292 293 295 294
204 204 205 204 205 207 210 216 221 223 222 220 225 232 236 236 243 249 245 249 252 263 272 279 283 283 290 289 292 296 299 301 302 301 302 300 298 295 293 292 291 290 290
213 207 207 210 212 214 216 219 225 227 228 229 229 231 237 243 244 250 250 252 254 262 266 268 275 280 283 287 291 294 297 297 297 298 300 297 293 290 290 289 288 287 286
222 215 214 217 219 219 222 225 227 231 234 235 237 243 248 248 251 252 247 248 258 262 268 272 277 286 292 295 299 299 297 295 293 295 294 292 291 288 288 290 290 287 285
220 221 217 222 223 222 226 229 232 234 235 239 241 245 250 253 255 254 254 254 259 266 272 278 282 285 292 297 301 302 298 296 296 294 291 292 290 290 286 286 286 287 287
225 222 222 225 227 226 226 227 232 233 235 239 244 245 247 250 253 257 261 263 266 266 272 279 284 289 293 298 301 304 302 298 295 292 293 293 290 290 288 287 288 288 288
228 227 226 229 233 233 233 229 231 232 238 243 250 252 251 253 255 260 263 268 273 276 277 283 288 290 293 299 303 303 309 308 306 304 299 291 289 289 290 292 294 296 293
230 228 228 228 228 230 232 234 234 237 241 244 250 257 258 259 261 264 267 271 277 279 284 285 288 291 293 299 301 306 304 306 314 311 312 317 309 304 297 298 297 298 300
233 230 228 229 232 230 233 236 242 249 253 257 257 258 258 261 265 268 273 275 279 282 283 285 289 295 297 300 298 305 312 306 311 299 308 302 300 302 300 299 301 301 302
230 231 229 228 230 232 234 235 238 246 251 254 255 262 267 270 273 279 282 283 282 281 283 284 286 287 293 296 295 290 289 286 299 304 299 298 299 295 294 297 297 298 298
226 228 230 230 232 232 234 236 237 241 250 265 272 276 277 279 281 286 288 288 290 290 288 288 288 290 289 287 292 291 289 288 285 295 296 294 295 294 293 291 287 289 290
219 222 226 226 230 230 230 236 240 244 251 260 267 269 274 277 276 278 283 284 281 283 285 290 292 288 288 290 292 296 295 295 291 280 283 288 297 302 299 294 290 289 286
220 218 219 220 223 229 234 233 235 240 247 254 263 269 277 281 279 278 280 283 281 283 287 290 290 289 291 294 292 292 290 291 292 288 281 284 287 294 298 300 302 292 289